Cherokee, North Carolina, United States (28719)
Lat: 35.47N, Lon: 83.31W
Wx Zone: NCZ051
Local Info
Past Weather Observations for Today

NOTE: This archive is for the closest National Weather Service station to Cherokee. Information may differ from the station used for current weather conditions.

Click here for Long-term Archive

Time Weather Temperature Dewpoint Humidity Pressure Winds Precip Visibility
21:55
Overcast
Light Snow
34°F / 1°C 23°F / -5°C 65% 29.71 in
(1006 mb)
NNW 9.2 mph
(NNW 15 kph)
- 7SM
21:35
Overcast
36°F / 2°C 21°F / -6°C 56% 29.71 in
(1006 mb)
NW 12.7 mph
(NW 20 kph)
- 10SM
21:15
Overcast
36°F / 2°C 19°F / -7°C 52% 29.71 in
(1006 mb)
NW 6.9 mph
(NW 11 kph)
- 10SM
20:55
Overcast
37°F / 3°C 18°F / -8°C 45% 29.71 in
(1006 mb)
NW 8.1 mph
(NW 13 kph)
- 10SM
20:35
Overcast
37°F / 3°C 18°F / -8°C 45% 29.71 in
(1006 mb)
NNW 8.1 mph
(NNW 13 kph)
- 10SM
20:15
Overcast
37°F / 3°C 18°F / -8°C 45% 29.71 in
(1006 mb)
NW 3.5 mph
(NW 6 kph)
- 10SM
19:55
Overcast
37°F / 3°C 19°F / -7°C 48% 29.71 in
(1006 mb)
NW 4.6 mph
(NW 7 kph)
- 10SM
19:35
Overcast
36°F / 2°C 21°F / -6°C 56% 29.71 in
(1006 mb)
NNW 4.6 mph
(NNW 7 kph)
- 10SM
19:15
Overcast
36°F / 2°C 23°F / -5°C 60% 29.74 in
(1007 mb)
NNW 6.9 mph
(NNW 11 kph)
- 10SM
18:55
Overcast
37°F / 3°C 21°F / -6°C 52% 29.71 in
(1006 mb)
NW 8.1 mph
(NW 13 kph)
- 10SM
18:35
Overcast
37°F / 3°C 23°F / -5°C 56% 29.71 in
(1006 mb)
NW 8.1 mph
(NW 13 kph)
- 10SM
18:15
Overcast
Light Snow
37°F / 3°C 23°F / -5°C 56% 29.71 in
(1006 mb)
W 15 mph
(W 24 kph)
- 7SM
17:55
Overcast
39°F / 4°C 23°F / -5°C 52% 29.71 in
(1006 mb)
WNW 9.2 mph
(WNW 15 kph)
- 10SM
17:35
Overcast
39°F / 4°C 23°F / -5°C 52% 29.68 in
(1005 mb)
NW 13.8 mph
(NW 22 kph)
- 10SM
17:15
Overcast
41°F / 5°C 21°F / -6°C 45% 29.68 in
(1005 mb)
NW 5.8 mph
(NW 9 kph)
- 10SM
16:55
Overcast
41°F / 5°C 19°F / -7°C 42% 29.68 in
(1005 mb)
W 18.4 mph
(W 30 kph)
- 10SM
16:35
Overcast
43°F / 6°C 19°F / -7°C 39% 29.65 in
(1004 mb)
W 10.4 mph
(W 17 kph)
- 10SM
16:15
Overcast
43°F / 6°C 21°F / -6°C 42% 29.65 in
(1004 mb)
W 11.5 mph
(W 19 kph)
- 10SM
15:55
Overcast
43°F / 6°C 23°F / -5°C 46% 29.65 in
(1004 mb)
SSW 10.4 mph
(SSW 17 kph)
- 10SM
15:35
Overcast
43°F / 6°C 23°F / -5°C 46% 29.68 in
(1005 mb)
W 19.6 mph
(W 32 kph)
- 10SM
15:15
Overcast
43°F / 6°C 23°F / -5°C 46% 29.65 in
(1004 mb)
NW 6.9 mph
(NW 11 kph)
- 10SM
14:55
Overcast
43°F / 6°C 23°F / -5°C 46% 29.65 in
(1004 mb)
WNW 12.7 mph
(WNW 20 kph)
- 10SM
14:35
Overcast
43°F / 6°C 23°F / -5°C 46% 29.65 in
(1004 mb)
W 5.8 mph
(W 9 kph)
- 10SM
14:15
Overcast
43°F / 6°C 25°F / -4°C 49% 29.65 in
(1004 mb)
SSW 10.4 mph
(SSW 17 kph)
- 10SM
13:55
Overcast
41°F / 5°C 27°F / -3°C 57% 29.65 in
(1004 mb)
SSW 12.7 mph
(SSW 20 kph)
- 10SM
13:35
Overcast
Light Snow
39°F / 4°C 27°F / -3°C 61% 29.68 in
(1005 mb)
SSW 19.6 mph
(SSW 32 kph)
- 5SM
13:15
Overcast
45°F / 7°C 21°F / -6°C 39% 29.65 in
(1004 mb)
SSW 10.4 mph
(SSW 17 kph)
- 10SM
12:55
Overcast
46°F / 8°C 21°F / -6°C 37% 29.68 in
(1005 mb)
SW 9.2 mph
(SW 15 kph)
- 10SM
12:35
Overcast
46°F / 8°C 23°F / -5°C 40% 29.68 in
(1005 mb)
SSW 17.3 mph
(SSW 28 kph)
- 10SM
12:15
Mostly Cloudy
43°F / 6°C 27°F / -3°C 53% 29.68 in
(1005 mb)
SW 4.6 mph
(SW 7 kph)
- 10SM
11:55
Partly Cloudy
43°F / 6°C 27°F / -3°C 53% 29.71 in
(1006 mb)
Calm - 10SM
11:35
Partly Cloudy
41°F / 5°C 28°F / -2°C 61% 29.74 in
(1007 mb)
Calm - 10SM
11:15
Partly Cloudy
39°F / 4°C 30°F / -1°C 70% 29.74 in
(1007 mb)
E 4.6 mph
(E 7 kph)
- 10SM
10:55
Overcast
39°F / 4°C 32°F / 0°C 75% 29.74 in
(1007 mb)
ENE 5.8 mph
(ENE 9 kph)
- 10SM
10:35
Overcast
36°F / 2°C 30°F / -1°C 81% 29.77 in
(1008 mb)
Calm - 10SM
10:15
Overcast
37°F / 3°C 30°F / -1°C 75% 29.77 in
(1008 mb)
Calm - 10SM
09:55
Overcast
34°F / 1°C 27°F / -3°C 75% 29.77 in
(1008 mb)
W 3.5 mph
(W 6 kph)
- 10SM
09:35
Overcast
32°F / 0°C 25°F / -4°C 75% 29.77 in
(1008 mb)
Calm - 10SM
09:15
Overcast
30°F / -1°C 25°F / -4°C 80% 29.77 in
(1008 mb)
Calm - 10SM
08:55
Mostly Cloudy
30°F / -1°C 25°F / -4°C 80% 29.77 in
(1008 mb)
Calm - 10SM
08:35
Overcast
30°F / -1°C 25°F / -4°C 80% 29.77 in
(1008 mb)
Calm - 10SM
08:15
Overcast
28°F / -2°C 25°F / -4°C 86% 29.77 in
(1008 mb)
Calm - 10SM
07:55
Overcast
28°F / -2°C 23°F / -5°C 80% 29.77 in
(1008 mb)
Calm - 10SM
07:35
Overcast
27°F / -3°C 25°F / -4°C 93% 29.77 in
(1008 mb)
Calm - 10SM
07:15
Mostly Cloudy
27°F / -3°C 23°F / -5°C 86% 29.77 in
(1008 mb)
Calm - 10SM
06:55
Mostly Cloudy
27°F / -3°C 23°F / -5°C 86% 29.77 in
(1008 mb)
ENE 3.5 mph
(ENE 6 kph)
- 10SM
06:35
Mostly Cloudy
27°F / -3°C 23°F / -5°C 86% 29.77 in
(1008 mb)
Calm - 10SM
06:15
Partly Cloudy
27°F / -3°C 23°F / -5°C 86% 29.77 in
(1008 mb)
Calm - 10SM
05:55
Partly Cloudy
25°F / -4°C 21°F / -6°C 86% 29.77 in
(1008 mb)
Calm - 10SM
05:35
Partly Cloudy
23°F / -5°C 21°F / -6°C 93% 29.8 in
(1009 mb)
Calm - 10SM
05:15
Clear
23°F / -5°C 21°F / -6°C 93% 29.8 in
(1009 mb)
Calm - 10SM
04:55
Clear
25°F / -4°C 21°F / -6°C 86% 29.83 in
(1010 mb)
Calm - 10SM
04:35
Clear
25°F / -4°C 21°F / -6°C 86% 29.83 in
(1010 mb)
Calm - 10SM
04:15
Clear
25°F / -4°C 21°F / -6°C 86% 29.83 in
(1010 mb)
Calm - 10SM
03:55
Clear
25°F / -4°C 21°F / -6°C 86% 29.86 in
(1011 mb)
Calm - 10SM
03:35
Clear
23°F / -5°C 21°F / -6°C 93% 29.86 in
(1011 mb)
Calm - 10SM
03:15
Clear
25°F / -4°C 23°F / -5°C 93% 29.86 in
(1011 mb)
Calm - 10SM
02:55
Clear
25°F / -4°C 23°F / -5°C 93% 29.86 in
(1011 mb)
Calm - 10SM
02:35
Clear
25°F / -4°C 21°F / -6°C 86% 29.86 in
(1011 mb)
Calm - 10SM
02:15
Clear
27°F / -3°C 23°F / -5°C 86% 29.89 in
(1012 mb)
Calm - 10SM
01:55
Clear
27°F / -3°C 23°F / -5°C 86% 29.89 in
(1012 mb)
Calm - 10SM
01:35
Clear
28°F / -2°C 23°F / -5°C 80% 29.92 in
(1013 mb)
Calm - 10SM
01:15
Clear
27°F / -3°C 23°F / -5°C 86% 29.92 in
(1013 mb)
Calm - 10SM
00:55
Clear
27°F / -3°C 23°F / -5°C 86% 29.92 in
(1013 mb)
Calm - 10SM
00:35
Clear
25°F / -4°C 23°F / -5°C 93% 29.92 in
(1013 mb)
Calm - 10SM
00:15
Clear
25°F / -4°C 21°F / -6°C 86% 29.92 in
(1013 mb)
Calm - 10SM
Time Weather Temperature Dewpoint Humidity Pressure Winds Precip Visibility


Weather for websites

WeatherForYou.com, LLC is not responsible for any damages or problems caused by this service. Current weather conditions are obtained from the closest station including government and personal stations which may have varying degrees of accuracy. Weather forecasts are derived from the NOAA NDFD. Like all things, this site belongs to Jesus Christ... He just trusts us to maintain it. If you have any questions or comments email webmaster@weatherforyou.com

Copyright © 2016, WeatherForYou.com LLC. All rights reserved.